Norman, Oklahoma, United States (73019)
Lat: 35.22N, Lon: 97.44W
Wx Zone: OKZ029
Local Info
Past Weather Observations for Today

NOTE: This archive is for the closest National Weather Service station to Norman. Information may differ from the station used for current weather conditions.

Click here for Long-term Archive

Time Weather Temperature Dewpoint Humidity Pressure Winds Precip Visibility
23:35
Clear
21°F / -6°C 7°F / -14°C 54% 30.48 in
(1032 mb)
NNE 10.4 mph
(NNE 17 kph)
- 10SM
23:15
Clear
23°F / -5°C 5°F / -15°C 46% 30.48 in
(1032 mb)
NE 11.5 mph
(NE 19 kph)
- 10SM
22:55
Clear
23°F / -5°C 5°F / -15°C 46% 30.48 in
(1032 mb)
NE 12.7 mph
(NE 20 kph)
- 10SM
22:35
Clear
23°F / -5°C 5°F / -15°C 46% 30.48 in
(1032 mb)
NNE 11.5 mph
(NNE 19 kph)
- 10SM
22:15
Clear
23°F / -5°C 5°F / -15°C 46% 30.48 in
(1032 mb)
NNE 10.4 mph
(NNE 17 kph)
- 10SM
21:55
Clear
23°F / -5°C 5°F / -15°C 46% 30.48 in
(1032 mb)
N 12.7 mph
(N 20 kph)
- 10SM
21:35
Clear
23°F / -5°C 7°F / -14°C 50% 30.48 in
(1032 mb)
N 9.2 mph
(N 15 kph)
- 10SM
21:15
Clear
23°F / -5°C 7°F / -14°C 50% 30.45 in
(1031 mb)
N 8.1 mph
(N 13 kph)
- 10SM
20:55
Clear
23°F / -5°C 7°F / -14°C 50% 30.45 in
(1031 mb)
N 8.1 mph
(N 13 kph)
- 10SM
20:35
Clear
23°F / -5°C 7°F / -14°C 50% 30.45 in
(1031 mb)
N 6.9 mph
(N 11 kph)
- 10SM
20:15
Clear
23°F / -5°C 7°F / -14°C 50% 30.45 in
(1031 mb)
N 6.9 mph
(N 11 kph)
- 10SM
19:55
Clear
23°F / -5°C 5°F / -15°C 46% 30.42 in
(1030 mb)
N 8.1 mph
(N 13 kph)
- 10SM
19:35
Clear
23°F / -5°C 5°F / -15°C 46% 30.42 in
(1030 mb)
N 9.2 mph
(N 15 kph)
- 10SM
19:15
Clear
23°F / -5°C 5°F / -15°C 46% 30.42 in
(1030 mb)
N 6.9 mph
(N 11 kph)
- 10SM
18:55
Clear
25°F / -4°C 5°F / -15°C 42% 30.42 in
(1030 mb)
NNE 6.9 mph
(NNE 11 kph)
- 10SM
18:35
Clear
27°F / -3°C 5°F / -15°C 39% 30.39 in
(1029 mb)
N 11.5 mph
(N 19 kph)
- 10SM
18:15
Clear
27°F / -3°C 7°F / -14°C 43% 30.39 in
(1029 mb)
N 11.5 mph
(N 19 kph)
- 10SM
17:55
Clear
28°F / -2°C 7°F / -14°C 40% 30.39 in
(1029 mb)
N 15 mph
(N 24 kph)
- 10SM
17:35
Clear
28°F / -2°C 9°F / -13°C 43% 30.39 in
(1029 mb)
N 13.8 mph
(N 22 kph)
- 10SM
17:15
Clear
28°F / -2°C 9°F / -13°C 43% 30.39 in
(1029 mb)
N 15 mph
(N 24 kph)
- 10SM
16:55
Clear
28°F / -2°C 7°F / -14°C 40% 30.39 in
(1029 mb)
NNE 16.1 mph
(NNE 26 kph)
- 10SM
16:35
Clear
32°F / 0°C 9°F / -13°C 37% 30.36 in
(1028 mb)
N 19.6 mph
(N 32 kph)
- 10SM
16:15
Partly Cloudy
30°F / -1°C 9°F / -13°C 40% 30.39 in
(1029 mb)
N 16.1 mph
(N 26 kph)
- 10SM
15:55
Mostly Cloudy
30°F / -1°C 9°F / -13°C 40% 30.39 in
(1029 mb)
N 16.1 mph
(N 26 kph)
- 10SM
15:35
Mostly Cloudy
30°F / -1°C 9°F / -13°C 40% 30.39 in
(1029 mb)
NNE 13.8 mph
(NNE 22 kph)
- 10SM
15:15
Mostly Cloudy
28°F / -2°C 9°F / -13°C 43% 30.36 in
(1028 mb)
N 16.1 mph
(N 26 kph)
- 10SM
14:55
Mostly Cloudy
28°F / -2°C 9°F / -13°C 43% 30.36 in
(1028 mb)
N 17.3 mph
(N 28 kph)
- 10SM
14:35
Clear
32°F / 0°C 12°F / -11°C 44% 30.36 in
(1028 mb)
NNE 23 mph
(NNE 37 kph)
- 10SM
14:15
Clear
28°F / -2°C 10°F / -12°C 47% 30.39 in
(1029 mb)
N 18.4 mph
(N 30 kph)
- 10SM
13:55
Clear
30°F / -1°C 12°F / -11°C 47% 30.36 in
(1028 mb)
N 19.6 mph
(N 32 kph)
- 10SM
13:35
Clear
30°F / -1°C 14°F / -10°C 51% 30.36 in
(1028 mb)
N 19.6 mph
(N 32 kph)
- 10SM
13:15
Clear
30°F / -1°C 12°F / -11°C 47% 30.36 in
(1028 mb)
N 13.8 mph
(N 22 kph)
- 10SM
12:55
Partly Cloudy
30°F / -1°C 12°F / -11°C 47% 30.36 in
(1028 mb)
NNE 18.4 mph
(NNE 30 kph)
- 10SM
12:35
Overcast
28°F / -2°C 12°F / -11°C 51% 30.39 in
(1029 mb)
N 15 mph
(N 24 kph)
- 10SM
12:15
Mostly Cloudy
28°F / -2°C 12°F / -11°C 51% 30.39 in
(1029 mb)
N 20.7 mph
(N 33 kph)
- 10SM
11:55
Partly Cloudy
28°F / -2°C 12°F / -11°C 51% 30.39 in
(1029 mb)
N 19.6 mph
(N 32 kph)
- 10SM
11:35
Mostly Cloudy
28°F / -2°C 12°F / -11°C 51% 30.39 in
(1029 mb)
N 18.4 mph
(N 30 kph)
- 10SM
11:15
Partly Cloudy
27°F / -3°C 12°F / -11°C 54% 30.39 in
(1029 mb)
N 23 mph
(N 37 kph)
- 10SM
10:55
Mostly Cloudy
27°F / -3°C 12°F / -11°C 54% 30.39 in
(1029 mb)
N 21.9 mph
(N 35 kph)
- 10SM
10:35
Mostly Cloudy
25°F / -4°C 12°F / -11°C 59% 30.42 in
(1030 mb)
N 21.9 mph
(N 35 kph)
- 10SM
10:15
Mostly Cloudy
23°F / -5°C 12°F / -11°C 63% 30.39 in
(1029 mb)
N 19.6 mph
(N 32 kph)
- 10SM
09:55
Partly Cloudy
23°F / -5°C 12°F / -11°C 63% 30.39 in
(1029 mb)
N 24.2 mph
(N 39 kph)
- 10SM
09:35
Mostly Cloudy
23°F / -5°C 14°F / -10°C 68% 30.39 in
(1029 mb)
N 21.9 mph
(N 35 kph)
- 10SM
09:15
Mostly Cloudy
23°F / -5°C 14°F / -10°C 68% 30.36 in
(1028 mb)
N 24.2 mph
(N 39 kph)
- 10SM
08:55
Mostly Cloudy
21°F / -6°C 14°F / -10°C 74% 30.36 in
(1028 mb)
N 20.7 mph
(N 33 kph)
- 10SM
08:35
Clear
21°F / -6°C 14°F / -10°C 74% 30.33 in
(1027 mb)
N 25.3 mph
(N 41 kph)
- 10SM
08:15
Partly Cloudy
21°F / -6°C 12°F / -11°C 68% 30.33 in
(1027 mb)
N 25.3 mph
(N 41 kph)
- 10SM
07:55
Partly Cloudy
21°F / -6°C 14°F / -10°C 74% 30.3 in
(1026 mb)
N 21.9 mph
(N 35 kph)
- 10SM
07:35
Partly Cloudy
21°F / -6°C 14°F / -10°C 74% 30.3 in
(1026 mb)
N 23 mph
(N 37 kph)
- 10SM
07:15
Partly Cloudy
21°F / -6°C 14°F / -10°C 74% 30.3 in
(1026 mb)
N 19.6 mph
(N 32 kph)
- 10SM
06:55
Partly Cloudy
23°F / -5°C 16°F / -9°C 74% 30.27 in
(1025 mb)
N 27.6 mph
(N 44 kph)
- 10SM
06:35
Mostly Cloudy
23°F / -5°C 16°F / -9°C 74% 30.27 in
(1025 mb)
N 18.4 mph
(N 30 kph)
- 10SM
06:15
Mostly Cloudy
23°F / -5°C 18°F / -8°C 80% 30.24 in
(1024 mb)
N 23 mph
(N 37 kph)
- 10SM
05:55
Overcast
25°F / -4°C 18°F / -8°C 74% 30.24 in
(1024 mb)
N 20.7 mph
(N 33 kph)
- 10SM
05:35
Overcast
27°F / -3°C 19°F / -7°C 74% 30.21 in
(1023 mb)
N 20.7 mph
(N 33 kph)
- 10SM
05:15
Overcast
27°F / -3°C 19°F / -7°C 74% 30.21 in
(1023 mb)
N 27.6 mph
(N 44 kph)
- 10SM
04:55
Overcast
27°F / -3°C 19°F / -7°C 74% 30.18 in
(1022 mb)
N 23 mph
(N 37 kph)
- 10SM
04:35
Mostly Cloudy
27°F / -3°C 19°F / -7°C 74% 30.18 in
(1022 mb)
N 20.7 mph
(N 33 kph)
- 10SM
04:15
Mostly Cloudy
27°F / -3°C 21°F / -6°C 80% 30.15 in
(1021 mb)
N 21.9 mph
(N 35 kph)
- 10SM
03:55
Mostly Cloudy
27°F / -3°C 21°F / -6°C 80% 30.15 in
(1021 mb)
N 23 mph
(N 37 kph)
- 10SM
03:35
Partly Cloudy
27°F / -3°C 21°F / -6°C 80% 30.15 in
(1021 mb)
N 24.2 mph
(N 39 kph)
- 10SM
03:15
Mostly Cloudy
28°F / -2°C 21°F / -6°C 74% 30.12 in
(1020 mb)
N 26.5 mph
(N 43 kph)
- 10SM
02:55
Overcast
28°F / -2°C 21°F / -6°C 74% 30.15 in
(1021 mb)
N 24.2 mph
(N 39 kph)
- 10SM
Time Weather Temperature Dewpoint Humidity Pressure Winds Precip Visibility


Weather for websites

WeatherForYou.com, LLC is not responsible for any damages or problems caused by this service. Current weather conditions are obtained from the closest station including government and personal stations which may have varying degrees of accuracy. Weather forecasts are derived from the NOAA NDFD. Like all things, this site belongs to Jesus Christ... He just trusts me to maintain it. If you have any questions or comments email webmaster@weatherforyou.com

Copyright © 2015, WeatherForYou.com LLC. All rights reserved.